When you browse on this site, cookies collect data to enhance your experience and personalize the content and advertising you see.
Visit our Privacy Policy to learn more. By continuing to use the site, you agree to this use of cookies and data.
  • în România
  • Lista ţărilor
  • Pe 7 zile
  • Temperatura apei
  • Hartă satelitară
  • Meteo pe hartă
  • Widget-uri
  • user-avatar
    Intrare

    Meteo pe oră la Yulara

    Astăzi, 16 Iunie, Duminică

    Timp Temperatura Precipitaţii Vânt Presiune Umiditate
    00:00 +12°C° 0 mm 3 m/s 720 mmHg 61%
    01:00 +11°C° 0 mm 3 m/s 720 mmHg 62%
    02:00 +11°C° 0 mm 3 m/s 720 mmHg 64%
    03:00 +10°C° 0 mm 3 m/s 721 mmHg 66%
    04:00 +10°C° 0 mm 3 m/s 721 mmHg 67%
    05:00 +9°C° 0 mm 3 m/s 721 mmHg 68%
    06:00 +9°C° 0 mm 3 m/s 721 mmHg 70%
    07:00 +10°C° 0 mm 4 m/s 722 mmHg 64%
    08:00 +12°C° 0 mm 4 m/s 722 mmHg 58%
    09:00 +13°C° 0 mm 4 m/s 722 mmHg 52%
    10:00 +15°C° 0 mm 4 m/s 722 mmHg 46%
    11:00 +17°C° 0 mm 5 m/s 722 mmHg 40%
    12:00 +20°C° 0 mm 5 m/s 722 mmHg 34%
    13:00 +20°C° 0 mm 5 m/s 721 mmHg 31%
    14:00 +21°C° 0 mm 4 m/s 721 mmHg 28%
    15:00 +22°C° 0 mm 4 m/s 720 mmHg 25%
    16:00 +20°C° 0 mm 4 m/s 720 mmHg 28%
    17:00 +18°C° 0 mm 4 m/s 720 mmHg 30%
    18:00 +16°C° 0 mm 3 m/s 721 mmHg 33%
    19:00 +15°C° 0 mm 4 m/s 721 mmHg 34%
    20:00 +14°C° 0 mm 4 m/s 721 mmHg 35%
    21:00 +13°C° 0 mm 4 m/s 722 mmHg 37%
    22:00 +12°C° 0 mm 4 m/s 722 mmHg 39%
    23:00 +12°C° 0 mm 4 m/s 721 mmHg 41%

    Mâine, 17 Iunie, Luni

    Timp Temperatura Precipitaţii Vânt Presiune Umiditate
    00:00 +11°C° 0 mm 4 m/s 721 mmHg 43%
    01:00 +10°C° 0 mm 4 m/s 721 mmHg 45%
    02:00 +10°C° 0 mm 4 m/s 721 mmHg 47%
    03:00 +8°C° 0 mm 4 m/s 721 mmHg 48%
    04:00 +8°C° 0 mm 4 m/s 721 mmHg 50%
    05:00 +8°C° 0 mm 4 m/s 721 mmHg 51%
    06:00 +8°C° 0 mm 4 m/s 721 mmHg 52%
    07:00 +9°C° 0 mm 5 m/s 722 mmHg 48%
    08:00 +12°C° 0 mm 5 m/s 722 mmHg 44%
    09:00 +13°C° 0 mm 6 m/s 723 mmHg 41%
    10:00 +15°C° 0 mm 5 m/s 723 mmHg 37%
    11:00 +17°C° 0 mm 5 m/s 722 mmHg 34%
    12:00 +19°C° 0 mm 5 m/s 722 mmHg 31%
    13:00 +20°C° 0 mm 4 m/s 722 mmHg 31%
    14:00 +20°C° 0 mm 3 m/s 721 mmHg 32%
    15:00 +21°C° 0 mm 2 m/s 721 mmHg 32%
    16:00 +20°C° 0 mm 3 m/s 721 mmHg 34%
    17:00 +19°C° 0 mm 3 m/s 721 mmHg 36%
    18:00 +18°C° 0 mm 4 m/s 721 mmHg 38%
    19:00 +17°C° 0 mm 4 m/s 722 mmHg 39%
    20:00 +16°C° 0 mm 5 m/s 722 mmHg 39%
    21:00 +15°C° 0 mm 5 m/s 723 mmHg 39%
    22:00 +14°C° 0 mm 5 m/s 723 mmHg 41%
    23:00 +13°C° 0 mm 5 m/s 723 mmHg 44%

    Poimâine, 18 Iunie, Marţi

    Timp Temperatura Precipitaţii Vânt Presiune Umiditate
    00:00 +12°C° 0 mm 5 m/s 723 mmHg 46%
    01:00 +10°C° 0 mm 5 m/s 723 mmHg 50%
    02:00 +9°C° 0 mm 5 m/s 723 mmHg 54%
    03:00 +9°C° 0 mm 5 m/s 722 mmHg 58%
    04:00 +8°C° 0 mm 5 m/s 723 mmHg 59%
    05:00 +8°C° 0 mm 5 m/s 723 mmHg 61%
    06:00 +8°C° 0 mm 5 m/s 723 mmHg 63%
    07:00 +9°C° 0 mm 5 m/s 724 mmHg 59%
    08:00 +10°C° 0 mm 6 m/s 724 mmHg 55%
    09:00 +11°C° 0 mm 7 m/s 724 mmHg 51%
    10:00 +14°C° 0 mm 7 m/s 724 mmHg 46%
    11:00 +15°C° 0 mm 7 m/s 724 mmHg 42%
    12:00 +17°C° 0 mm 6 m/s 724 mmHg 37%
    13:00 +17°C° 0 mm 6 m/s 723 mmHg 36%
    14:00 +19°C° 0 mm 5 m/s 723 mmHg 34%
    15:00 +19°C° 0 mm 5 m/s 722 mmHg 33%
    16:00 +17°C° 0 mm 5 m/s 722 mmHg 36%
    17:00 +15°C° 0 mm 4 m/s 722 mmHg 39%
    18:00 +14°C° 0 mm 4 m/s 722 mmHg 42%
    19:00 +13°C° 0 mm 4 m/s 723 mmHg 45%
    20:00 +12°C° 0 mm 4 m/s 723 mmHg 48%
    21:00 +10°C° 0 mm 5 m/s 723 mmHg 52%
    22:00 +10°C° 0 mm 4 m/s 723 mmHg 58%
    23:00 +10°C° 0 mm 4 m/s 723 mmHg 65%

    19 Iunie, Miercuri

    Timp Temperatura Precipitaţii Vânt Presiune Umiditate
    00:00 +8°C° 0 mm 4 m/s 723 mmHg 72%
    01:00 +7°C° 0 mm 4 m/s 723 mmHg 73%
    02:00 +7°C° 0 mm 4 m/s 723 mmHg 75%
    03:00 +6°C° 0 mm 4 m/s 723 mmHg 76%
    04:00 +6°C° 0 mm 4 m/s 723 mmHg 76%
    05:00 +5°C° 0 mm 4 m/s 723 mmHg 75%
    06:00 +5°C° 0 mm 4 m/s 723 mmHg 75%
    07:00 +6°C° 0 mm 5 m/s 723 mmHg 67%
    08:00 +7°C° 0 mm 5 m/s 724 mmHg 60%
    09:00 +9°C° 0 mm 6 m/s 724 mmHg 52%
    10:00 +10°C° 0 mm 5 m/s 724 mmHg 47%
    11:00 +13°C° 0 mm 5 m/s 723 mmHg 41%
    12:00 +15°C° 0 mm 5 m/s 723 mmHg 36%
    13:00 +15°C° 0 mm 4 m/s 722 mmHg 33%
    14:00 +17°C° 0 mm 4 m/s 722 mmHg 30%
    15:00 +18°C° 0 mm 3 m/s 721 mmHg 28%
    16:00 +16°C° 0 mm 3 m/s 721 mmHg 29%
    17:00 +14°C° 0 mm 3 m/s 721 mmHg 31%
    18:00 +12°C° 0 mm 3 m/s 721 mmHg 33%
    19:00 +12°C° 0 mm 3 m/s 722 mmHg 33%
    20:00 +11°C° 0 mm 3 m/s 722 mmHg 34%
    21:00 +10°C° 0 mm 3 m/s 723 mmHg 35%
    22:00 +9°C° 0 mm 3 m/s 723 mmHg 36%
    23:00 +9°C° 0 mm 3 m/s 722 mmHg 37%

    20 Iunie, Joi

    Timp Temperatura Precipitaţii Vânt Presiune Umiditate
    00:00 +8°C° 0 mm 3 m/s 722 mmHg 38%
    01:00 +8°C° 0 mm 3 m/s 722 mmHg 40%
    02:00 +7°C° 0 mm 3 m/s 722 mmHg 42%
    03:00 +5°C° 0 mm 3 m/s 722 mmHg 44%
    04:00 +5°C° 0 mm 3 m/s 723 mmHg 46%
    05:00 +5°C° 0 mm 3 m/s 723 mmHg 47%
    06:00 +4°C° 0 mm 3 m/s 723 mmHg 48%
    07:00 +6°C° 0 mm 4 m/s 724 mmHg 45%
    08:00 +7°C° 0 mm 4 m/s 724 mmHg 42%
    09:00 +9°C° 0 mm 5 m/s 724 mmHg 39%
    10:00 +10°C° 0 mm 5 m/s 724 mmHg 36%
    11:00 +13°C° 0 mm 5 m/s 724 mmHg 33%
    12:00 +15°C° 0 mm 5 m/s 723 mmHg 31%
    13:00 +15°C° 0 mm 5 m/s 723 mmHg 28%
    14:00 +16°C° 0 mm 5 m/s 723 mmHg 25%
    15:00 +16°C° 0 mm 5 m/s 722 mmHg 22%
    16:00 +15°C° 0 mm 5 m/s 722 mmHg 24%
    17:00 +13°C° 0 mm 5 m/s 723 mmHg 27%
    18:00 +11°C° 0 mm 4 m/s 723 mmHg 29%
    19:00 +10°C° 0 mm 4 m/s 723 mmHg 32%
    20:00 +8°C° 0 mm 5 m/s 723 mmHg 34%
    21:00 +7°C° 0 mm 5 m/s 724 mmHg 36%
    22:00 +7°C° 0 mm 5 m/s 724 mmHg 39%
    23:00 +6°C° 0 mm 5 m/s 724 mmHg 41%

    21 Iunie, Vineri

    Timp Temperatura Precipitaţii Vânt Presiune Umiditate
    00:00 +5°C° 0 mm 4 m/s 724 mmHg 44%
    01:00 +5°C° 0 mm 4 m/s 724 mmHg 47%
    02:00 +4°C° 0 mm 4 m/s 723 mmHg 51%
    03:00 +3°C° 0 mm 4 m/s 723 mmHg 54%
    04:00 +3°C° 0 mm 4 m/s 724 mmHg 56%
    05:00 +3°C° 0 mm 4 m/s 724 mmHg 58%
    06:00 +1°C° 0 mm 4 m/s 724 mmHg 61%
    07:00 +4°C° 0 mm 4 m/s 724 mmHg 56%
    08:00 +5°C° 0 mm 5 m/s 725 mmHg 51%
    09:00 +7°C° 0 mm 5 m/s 725 mmHg 46%
    10:00 +8°C° 0 mm 5 m/s 725 mmHg 40%
    11:00 +10°C° 0 mm 5 m/s 725 mmHg 34%
    12:00 +13°C° 0 mm 5 m/s 724 mmHg 28%
    13:00 +14°C° 0 mm 5 m/s 723 mmHg 26%
    14:00 +14°C° 0 mm 5 m/s 723 mmHg 24%
    15:00 +15°C° 0 mm 5 m/s 722 mmHg 22%
    16:00 +13°C° 0 mm 5 m/s 722 mmHg 25%
    17:00 +12°C° 0 mm 4 m/s 722 mmHg 28%
    18:00 +10°C° 0 mm 4 m/s 722 mmHg 31%
    19:00 +8°C° 0 mm 4 m/s 723 mmHg 33%
    20:00 +7°C° 0 mm 4 m/s 723 mmHg 35%
    21:00 +7°C° 0 mm 4 m/s 723 mmHg 36%
    22:00 +6°C° 0 mm 4 m/s 723 mmHg 39%
    23:00 +5°C° 0 mm 4 m/s 723 mmHg 42%
    Arată mai mult